[[{"header":{"parameterUnit":"m.s-1","parameterCategory":1,"la1":30.2991,"la2":30.254,"lo1":-89.0895,"lo2":-89.0444,"dy":0.0017,"dx":0.0017,"nx":28,"ny":28,"refTime":"2024-12-13T03:00:00:Z","depth":0,"parameterNumber":2,"parameterNumberName":"U-component_of_WINDS"},"data":[0,0,0,0,0,0,0,0,0,0,0,0,0,0,0,0,0,0,0,0,0,0,0,0,0,0,0,0,0,0,0,0,0,0,0,0,0,0,0,0,0,0,0,0,0,0,0,0,0,0,0,0,0,0,0,0,0,0,-6.1604,-6.1605,0,-6.1713,-6.1714,-6.1716,-6.1636,-6.1632,-6.1629,-6.1626,-6.1735,-6.1741,-6.1748,0,0,0,0,0,0,0,0,0,0,0,0,0,-6.1325,-6.1331,-6.1604,-6.1606,-6.1607,-6.1713,-6.1714,-6.1716,-6.1637,-6.1632,-6.1628,-6.1624,-6.1733,-6.1741,-6.1748,0,0,0,0,0,0,0,0,0,0,0,0,0,-6.1442,-6.1333,-6.1604,-6.158,-6.1579,-6.1713,-6.1715,-6.1716,-6.1637,-6.1632,-6.1627,-6.1622,-6.1731,-6.174,-6.1749,-6.1911,0,0,-6.1777,-6.1781,0,0,0,0,0,0,0,0,-6.1435,-6.1452,-6.1582,-6.1582,-6.1581,-6.1656,-6.1656,-6.1782,-6.1639,-6.1615,-6.1626,-6.1619,-6.1713,-6.1723,-6.1755,-6.1917,-6.1921,-6.1778,-6.1784,-6.1788,-6.1791,0,0,0,0,0,0,0,-6.1427,-6.1447,-6.1647,-6.1584,-6.1584,-6.1563,-6.1574,-6.168,-6.1692,-6.1617,-6.1611,-6.1625,-6.1712,-6.1747,-6.1757,-6.1923,-6.1778,-6.1786,-6.1792,-6.1796,-6.2222,-6.2228,0,0,0,0,0,0,-6.1422,-6.1441,-6.1644,-6.165,-6.1494,-6.1573,-6.1585,-6.1637,-6.1691,-6.1694,-6.163,-6.1621,-6.1733,-6.1747,-6.1761,-6.1953,-6.1788,-6.1797,-6.1802,-6.2216,-6.2223,-6.223,0,0,0,0,0,0,-6.1416,-6.1441,-6.1639,-6.1544,-6.1568,-6.1583,-6.1642,-6.1642,-6.1677,-6.1701,-6.1702,-6.1663,-6.173,-6.1748,-6.1875,-6.1956,-6.1801,-6.1809,-6.221,-6.2218,-6.2226,-6.2341,0,0,0,0,0,0,-6.1408,-6.1439,-6.1501,-6.1546,-6.1573,-6.1752,-6.1648,-6.1648,-6.1693,-6.1683,-6.1732,-6.1736,-6.1727,-6.1861,-6.1884,-6.1966,-6.1816,-6.2202,-6.2214,-6.2224,-6.233,-6.2352,-6.2372,0,0,0,0,0,-6.1399,-6.1529,-6.1505,-6.153,-6.1652,-6.1757,-6.1772,-6.176,-6.17,-6.1762,-6.1778,-6.1734,-6.1944,-6.1875,-6.19,-6.1986,-6.2197,-6.221,-6.2223,-6.232,-6.2348,-6.2371,0,0,0,0,0,0,-6.1492,-6.1534,-6.1508,-6.1657,-6.1704,-6.1743,-6.1821,-6.179,-6.1854,-6.1842,-6.1824,-6.1836,-6.1969,-6.199,-6.1912,-6.2146,-6.2061,-6.2079,-6.2126,-6.2153,-6.2173,-6.2164,-6.1824,0,0,0,0,0,-6.153,-6.1613,-6.1645,-6.1773,-6.1798,-6.1806,-6.1852,-6.1838,-6.1886,-6.1905,-6.193,-6.1978,-6.2054,-6.2105,-6.2177,-6.2333,-6.2342,-6.2405,-6.2426,-6.2443,-6.2458,-6.2542,-6.2569,-6.2272,-6.2272,-6.2272,0,0,-6.1609,-6.1643,-6.1696,-6.1793,-6.1828,-6.1913,-6.1823,-6.1917,-6.198,-6.1919,-6.204,-6.2061,-6.2112,-6.2255,-6.2318,-6.2276,-6.2543,-6.2459,-6.2473,-6.2479,-6.2558,-6.2586,-6.2611,-6.2281,-6.2279,-6.2278,0,0,-6.1797,-6.1831,-6.1941,-6.1978,-6.2033,-6.2037,-6.2064,-6.2109,-6.2119,-6.2241,-6.2197,-6.2271,-6.2404,-6.2442,-6.2479,-6.2683,-6.2644,-6.2707,-6.2815,-6.2896,-6.292,-6.294,-6.3011,-6.3037,-6.2723,-6.2723,-6.2723,0,-6.1888,-6.2015,-6.2002,-6.2099,-6.2143,-6.2093,-6.2203,-6.224,-6.2315,-6.2346,-6.2298,-6.2464,-6.2495,-6.2645,-6.2695,-6.2727,-6.2756,-6.27,-6.2918,-6.2938,-6.2957,-6.3025,-6.3052,-6.273,-6.2729,-6.2728,-6.2728,0,-6.2124,-6.2213,-6.2296,-6.237,-6.2423,-6.2527,-6.2528,-6.2583,-6.2566,-6.2575,-6.2699,-6.2735,-6.2813,-6.2848,-6.2832,-6.2996,-6.2968,-6.292,-6.2834,-6.2993,-6.3056,-6.3082,-6.274,-6.2737,-6.2735,-6.2734,0,0,-6.2372,-6.2438,-6.2468,-6.2501,-6.2558,-6.2626,-6.2728,-6.2805,-6.2852,-6.2906,-6.2989,-6.3103,-6.3059,-6.3101,-6.3088,-6.316,-6.3317,-6.3103,-6.3104,-6.314,-6.3499,-6.3534,-6.3564,-6.3293,-6.3298,-6.3302,-6.3494,0,-6.2561,-6.2738,-6.2729,-6.2894,-6.2976,-6.293,-6.3018,-6.3063,-6.3074,-6.3145,-6.3157,-6.3238,-6.3174,-6.3199,-6.3268,-6.3284,-6.3389,-6.327,-6.337,-6.3373,-6.3356,-6.3597,-6.3634,-6.3813,-6.3519,-6.3523,-6.3526,0,-6.2805,-6.2867,-6.3041,-6.3086,-6.312,-6.3199,-6.3269,-6.3337,-6.3386,-6.3389,-6.3437,-6.3413,-6.3515,-6.3429,-6.3568,-6.3487,-6.3528,-6.3542,-6.3548,-6.3555,-6.3458,-6.3609,-6.387,-6.3896,-6.3565,-6.3562,-6.3559,0,-6.2966,-6.3094,-6.3214,-6.3244,-6.33,-6.3356,-6.3382,-6.3426,-6.3473,-6.3534,-6.3563,-6.3636,-6.3675,-6.3731,-6.3727,-6.3664,-6.3868,-6.3781,-6.3872,-6.3873,-6.3915,-6.3912,-6.4185,-6.3945,-6.3945,-6.3945,-6.3944,0,-6.3177,-6.3285,-6.3287,-6.3361,-6.348,-6.3469,-6.3587,-6.3607,-6.3646,-6.3722,-6.3688,-6.376,-6.3751,-6.3824,-6.3822,-6.3937,-6.3955,-6.396,-6.3958,-6.3962,-6.3961,-6.3986,-6.3973,-6.3952,-6.395,-6.3949,-6.3947,0,-6.3376,-6.3383,-6.351,-6.3553,-6.3566,-6.3652,-6.3688,-6.3757,-6.3767,-6.3864,-6.3886,-6.39,-6.3984,-6.3986,-6.4082,-6.408,-6.422,-6.4205,-6.4204,-6.42,-6.429,-6.4281,-6.4587,-6.4626,-6.4363,-6.4366,-6.4368,0,-6.3509,-6.3591,-6.3643,-6.3691,-6.3721,-6.38,-6.3848,-6.384,-6.3891,-6.3953,-6.4015,-6.4096,-6.4159,-6.4295,-6.4314,-6.4387,-6.4372,-6.4474,-6.4382,-6.4384,-6.4371,-6.4365,-6.4373,-6.4491,-6.4494,-6.4496,-6.4498,0,-6.3744,-6.3743,-6.3814,-6.3886,-6.3944,-6.4,-6.4052,-6.4094,-6.4092,-6.4151,-6.4237,-6.4286,-6.4385,-6.4464,-6.4535,-6.4561,-6.4529,-6.4528,-6.4552,-6.4556,-6.4551,-6.4553,-6.425,-6.452,-6.4518,-6.4516,-6.4515,-6.4514,-6.3913,-6.3983,-6.403,-6.411,-6.4148,-6.4198,-6.4265,-6.4283,-6.4355,-6.4434,-6.4426,-6.452,-6.4567,-6.4659,-6.4691,-6.4764,-6.4729,-6.4765,-6.4773,-6.4782,-6.4791,-6.4542,-6.4777,-6.4777,-6.4776,-6.4776,-6.4775,0,-6.4144,-6.4172,-6.4246,-6.432,-6.4383,-6.4349,-6.4405,-6.4459,-6.4543,-6.459,-6.4653,-6.4751,-6.4829,-6.4854,-6.4929,-6.4983,-6.4971,-6.5003,-6.4998,-6.5004,-6.4819,-6.479,-6.5012,-6.5012,-6.5012,-6.5012,-6.5012,-6.5012,-6.4271,-6.4388,-6.4393,-6.4529,-6.4556,-6.4649,-6.4684,-6.4729,-6.4766,-6.4877,-6.4941,-6.4958,-6.4996,-6.5074,-6.5143,-6.5148,-6.5177,-6.5215,-6.5214,-6.5041,-6.5017,-6.4994,-6.4966,-6.5222,-6.5222,-6.5392,-6.5394,-6.5395]},{"header":{"parameterUnit":"m.s-1","parameterCategory":1,"la1":30.2991,"la2":30.254,"lo1":-89.0895,"lo2":-89.0444,"dy":0.0017,"dx":0.0017,"nx":28,"ny":28,"refTime":"2024-12-13T03:00:00:Z","depth":0,"parameterNumber":3,"parameterNumberName":"V-component_of_WINDS"},"data":[0,0,0,0,0,0,0,0,0,0,0,0,0,0,0,0,0,0,0,0,0,0,0,0,0,0,0,0,0,0,0,0,0,0,0,0,0,0,0,0,0,0,0,0,0,0,0,0,0,0,0,0,0,0,0,0,0,0,0.3031,0.3033,0,0.3166,0.3167,0.3169,0.3256,0.3257,0.3257,0.3258,0.3394,0.3397,0.34,0,0,0,0,0,0,0,0,0,0,0,0,0,0.2851,0.2854,0.3031,0.3033,0.3035,0.3166,0.3168,0.3169,0.3256,0.3257,0.3257,0.3258,0.3393,0.3396,0.34,0,0,0,0,0,0,0,0,0,0,0,0,0,0.2951,0.2854,0.3031,0.3094,0.3101,0.3165,0.3168,0.317,0.3256,0.3257,0.3257,0.3258,0.3391,0.3396,0.3401,0.3413,0,0,0.3415,0.3417,0,0,0,0,0,0,0,0,0.2946,0.2958,0.3083,0.3089,0.3097,0.3195,0.3154,0.3251,0.3256,0.3197,0.3258,0.3259,0.3327,0.3337,0.336,0.3419,0.3425,0.3415,0.3418,0.342,0.3421,0,0,0,0,0,0,0,0.2939,0.2953,0.3084,0.3084,0.3093,0.3116,0.3131,0.3173,0.3255,0.3202,0.3209,0.3224,0.3331,0.3356,0.3364,0.3427,0.3415,0.3419,0.3422,0.3424,0.3509,0.3508,0,0,0,0,0,0,0.2922,0.2946,0.308,0.3088,0.3022,0.3118,0.3135,0.3163,0.3255,0.327,0.3223,0.3227,0.3347,0.3359,0.3369,0.3393,0.342,0.3424,0.3427,0.3509,0.3509,0.3508,0,0,0,0,0,0,0.2917,0.2933,0.3075,0.3019,0.3039,0.312,0.3151,0.3165,0.319,0.3271,0.3286,0.3232,0.3348,0.3363,0.3403,0.3399,0.3427,0.3431,0.351,0.3509,0.3508,0.3439,0,0,0,0,0,0,0.2912,0.2931,0.2935,0.3019,0.3042,0.3105,0.315,0.3167,0.3198,0.3205,0.3284,0.3298,0.335,0.3395,0.3407,0.3406,0.3434,0.3511,0.3509,0.3508,0.3442,0.3436,0.3431,0,0,0,0,0,0.2905,0.2909,0.2935,0.2951,0.3049,0.3105,0.3118,0.3178,0.3197,0.3203,0.3256,0.3296,0.3397,0.3399,0.3413,0.3413,0.3511,0.351,0.3509,0.3444,0.3437,0.3431,0,0,0,0,0,0,0.2821,0.2921,0.2951,0.2982,0.3034,0.3119,0.3129,0.3167,0.3215,0.3219,0.3292,0.3309,0.3343,0.3382,0.3381,0.3432,0.3459,0.3461,0.3405,0.3399,0.3394,0.3384,0.3438,0,0,0,0,0,0.2806,0.2843,0.2928,0.2947,0.2972,0.3046,0.3072,0.3115,0.3171,0.3194,0.3249,0.3303,0.3348,0.3376,0.3421,0.3448,0.3469,0.3456,0.345,0.3445,0.3445,0.3467,0.3463,0.3504,0.3504,0.3504,0,0,0.2776,0.2835,0.2853,0.2932,0.2978,0.3015,0.3064,0.31,0.3129,0.3199,0.3242,0.3284,0.335,0.3384,0.3403,0.3418,0.3439,0.3443,0.3439,0.3442,0.3465,0.3461,0.3458,0.3503,0.3503,0.3503,0,0,0.274,0.2787,0.281,0.2856,0.2926,0.2975,0.2981,0.3061,0.3093,0.3137,0.3192,0.3228,0.3302,0.3348,0.338,0.3367,0.3406,0.3379,0.335,0.337,0.3367,0.3365,0.3362,0.3361,0.338,0.338,0.3379,0,0.2693,0.2751,0.2817,0.2852,0.2886,0.2954,0.2979,0.302,0.31,0.3123,0.314,0.3238,0.3286,0.3334,0.3332,0.3355,0.3366,0.3371,0.3362,0.336,0.3359,0.3358,0.3357,0.3376,0.3377,0.3377,0.3377,0,0.2692,0.2732,0.2742,0.2821,0.2856,0.2886,0.2957,0.2986,0.3026,0.3075,0.3121,0.3182,0.3242,0.3257,0.3295,0.3312,0.332,0.3348,0.3377,0.3351,0.3351,0.3351,0.3371,0.3372,0.3373,0.3374,0,0,0.2604,0.2722,0.2725,0.2763,0.2847,0.2879,0.2913,0.2975,0.2999,0.3053,0.3085,0.3149,0.3177,0.3214,0.3259,0.3276,0.3266,0.3303,0.3306,0.3296,0.3292,0.3272,0.327,0.3293,0.3293,0.3293,0.3288,0,0.2582,0.2647,0.271,0.2753,0.2793,0.286,0.289,0.2945,0.2992,0.3034,0.3086,0.3131,0.3163,0.3187,0.3207,0.3263,0.3266,0.3264,0.3325,0.3326,0.3307,0.327,0.3247,0.3239,0.3288,0.3288,0.3288,0,0.2564,0.2618,0.2666,0.2751,0.2769,0.2795,0.2859,0.2897,0.2962,0.2996,0.304,0.3088,0.313,0.3154,0.3213,0.321,0.3239,0.3271,0.3272,0.328,0.3306,0.3279,0.3237,0.3237,0.3288,0.3288,0.3288,0,0.2499,0.2583,0.2624,0.2654,0.2753,0.277,0.2812,0.2879,0.2913,0.2968,0.2992,0.3051,0.3083,0.3128,0.3192,0.3203,0.3246,0.3275,0.3276,0.3275,0.3282,0.3281,0.3246,0.3298,0.3298,0.3298,0.3298,0,0.2469,0.2496,0.2597,0.2621,0.2655,0.2728,0.2759,0.2807,0.2866,0.2903,0.2964,0.2997,0.3079,0.3122,0.3172,0.3216,0.3229,0.3259,0.3272,0.3254,0.3251,0.3274,0.3277,0.3298,0.3298,0.3298,0.3298,0,0.2401,0.2469,0.2518,0.2609,0.2633,0.2654,0.2732,0.276,0.2812,0.2858,0.2873,0.2954,0.3009,0.3078,0.3153,0.3188,0.3227,0.3246,0.3205,0.3213,0.3212,0.3212,0.3192,0.3194,0.3242,0.3242,0.3241,0,0.2377,0.2401,0.2495,0.2525,0.2565,0.2612,0.2648,0.2721,0.2757,0.2836,0.2855,0.2915,0.2967,0.3052,0.3118,0.3178,0.32,0.3189,0.3209,0.3192,0.3203,0.3201,0.3205,0.3184,0.3183,0.3182,0.3182,0,0.233,0.2364,0.2414,0.2477,0.252,0.2573,0.2628,0.2649,0.2734,0.2771,0.2829,0.287,0.295,0.3009,0.3078,0.3123,0.3167,0.3175,0.3179,0.3161,0.3138,0.3153,0.3193,0.3175,0.3176,0.3176,0.3176,0.3177,0.2285,0.2311,0.2382,0.2438,0.2488,0.254,0.2572,0.2629,0.2679,0.2751,0.2791,0.2848,0.2918,0.3015,0.3058,0.3105,0.3121,0.3126,0.3128,0.3128,0.3124,0.313,0.3118,0.3118,0.3118,0.3118,0.3119,0,0.2243,0.2294,0.2344,0.2421,0.2466,0.2505,0.257,0.2605,0.2655,0.2716,0.2767,0.2835,0.2895,0.2967,0.3032,0.3056,0.3078,0.307,0.307,0.308,0.3104,0.3096,0.3052,0.3052,0.3052,0.3052,0.3052,0.3052,0.2226,0.2272,0.2315,0.2388,0.2439,0.2497,0.2531,0.258,0.263,0.2704,0.2754,0.2802,0.2868,0.2939,0.2996,0.3016,0.3038,0.3025,0.3051,0.3072,0.3078,0.3083,0.3076,0.3028,0.3028,0.3023,0.3023,0.3023]}]]